Odiham, United Kingdom

2:09 PM BST on August 23, 2017 (GMT +0100)
Odiham Air Base

Weather History for EGVO - October, 2013

Change the Weather History Date:

Tuesday, October 29, 2013

  Actual Average Record
Temperature  
Mean Temperature 47 °F -  
Max Temperature 53 °F - - ()
Min Temperature 41 °F - - ()
Degree Days  
Heating Degree Days 18    
Moisture  
Dew Point 40 °F    
Average Humidity 78    
Maximum Humidity 93    
Minimum Humidity 48    
Precipitation  
Precipitation 0.00 in - - ()
Sea Level Pressure  
Sea Level Pressure 29.86 in    
Wind  
Wind Speed 13 mph ()    
Max Wind Speed 20 mph    
Max Gust Speed -    
Visibility 7.2 miles    
Events      
T = Trace of Precipitation, MM = Missing Value Source: Averaged Metar Reports

Daily Weather History Graph

Daily Weather History Graph

Search for Another Location

Airport or City:

Trip Planner

Search our weather history database for the weather conditions in past years. The results will help you decide how hot, cold, wet, or windy it might be!

Date:

Astronomy

Oct. 29, 2013 Rise Set
Actual Time 6:51 AM GMT 4:42 PM GMT
Civil Twilight 6:16 AM GMT 5:17 PM GMT
Nautical Twilight 5:37 AM GMT 5:56 PM GMT
Astronomical Twilight 4:59 AM GMT 6:34 PM GMT
Moon 12:52 AM GMT (10/29) 2:19 PM GMT (10/29)
Length of Visible Light 11h 00m
Length of Day
9h 51m
Waning Crescent, 27% of the Moon is Illuminated
Oct 29
Waning Crescent
Nov 3
New
Nov 10
First Quarter
Nov 17
Full
Nov 25
Last Quarter

Hourly Weather History & Observations

Time (GMT) Temp. Windchill Dew Point Humidity Pressure Visibility Wind Dir Wind Speed Gust Speed Precip Events Conditions
12:00 AM 47 °F - 42 °F 76% 29.62 in 28 mi WSW 19.6 mph - -  
12:50 AM 46.4 °F 39.5 °F 42.8 °F 87% 29.62 in - WSW 17.3 mph - N/A   Clear
1:50 AM 46.4 °F 40.1 °F 42.8 °F 87% 29.65 in - WSW 15.0 mph - N/A   Clear
2:50 AM 46.4 °F 40.4 °F 42.8 °F 87% 29.65 in - SW 13.8 mph - N/A   Clear
3:50 AM 46.4 °F 40.4 °F 42.8 °F 87% 29.68 in - SW 13.8 mph - N/A   Clear
4:50 AM 44.6 °F 38.1 °F 42.8 °F 93% 29.71 in - SW 13.8 mph - N/A   Clear
5:50 AM 44.6 °F 38.1 °F 41.0 °F 87% 29.74 in - SW 13.8 mph - N/A   Clear
6:00 AM 44 °F - 41 °F 87% 29.75 in 15 mi SW 13.8 mph - -   Clear
6:50 AM 44.6 °F 38.1 °F 41.0 °F 87% 29.74 in - SW 13.8 mph - N/A   Clear
7:50 AM 44.6 °F 38.1 °F 41.0 °F 87% 29.80 in - SW 13.8 mph - N/A   Clear
8:50 AM 48.2 °F - 41.0 °F 76% 29.83 in - SW 13.8 mph - N/A   Clear
9:50 AM 50.0 °F - 42.8 °F 76% 29.83 in 6.2 mi WSW 15.0 mph - N/A   Partly Cloudy
10:50 AM 51.8 °F - 42.8 °F 71% 29.86 in 6.2 mi West 16.1 mph - N/A   Scattered Clouds
11:50 AM 51.8 °F - 41.0 °F 67% 29.89 in 6.2 mi West 16.1 mph - N/A   Scattered Clouds
12:00 PM 52 °F - 41 °F 55% 29.89 in 25 mi West 16.1 mph - -   Partly Cloudy
12:50 PM 53.6 °F - 37.4 °F 54% 29.89 in 6.2 mi West 18.4 mph - N/A   Scattered Clouds
1:50 PM 51.8 °F - 35.6 °F 54% 29.92 in 6.2 mi West 17.3 mph - N/A   Scattered Clouds
2:50 PM 51.8 °F - 37.4 °F 58% 29.92 in - West 12.7 mph - N/A   Clear
3:00 PM 51 °F - 37 °F 48% 29.94 in 25 mi West 12.7 mph - -   Partly Cloudy
3:50 PM 51.8 °F - 35.6 °F 54% 29.92 in 6.2 mi West 11.5 mph - N/A   Partly Cloudy
4:50 PM 46.4 °F 42.9 °F 37.4 °F 71% 29.95 in 6.2 mi SW 6.9 mph - N/A   Partly Cloudy
5:50 PM 44.6 °F 40.2 °F 39.2 °F 81% 29.98 in 6.2 mi SSW 8.1 mph - N/A   Partly Cloudy
6:50 PM 46.4 °F 41.5 °F 41.0 °F 81% 30.01 in - SW 10.4 mph - N/A   Clear
7:50 PM 44.6 °F 40.2 °F 41.0 °F 87% 30.01 in - SW 8.1 mph - N/A   Clear
8:50 PM 41.0 °F 35.8 °F 39.2 °F 93% 30.04 in - SW 8.1 mph - N/A   Clear
9:00 PM 42 °F - 39 °F 86% 30.06 in 28 mi SW 8.1 mph - -  
9:50 PM 42.8 °F 37.0 °F 39.2 °F 87% 30.04 in - SW 10.4 mph - N/A   Clear
10:50 PM 41.0 °F 35.8 °F 39.2 °F 93% 30.06 in - SW 8.1 mph - N/A   Clear
11:50 PM 41.0 °F 35.8 °F 39.2 °F 93% 30.06 in - SW 8.1 mph - N/A   Clear